Погода в Приволье

Украина / Херсонская область     46°09′43″N   33°20′57″E
темп.,
°C
ветер,
м/с
пор.,
м/с
влажн.,
%
обл.,
%
осадки,
мм/ч
давл.,
гПа
погр.,
м
2 августа, пн
пн200:00+24з22620 0.0 101224
03:00+23з22700 0.0 101219
06:00+23юз11770 0.0 101111
09:00+29ююз45490 0.0 1011666
12:00+32ююз55370 0.0 10111192
15:00+33юз55330 0.0 10101321
18:00+31зюз55380 0.0 1010637
21:00+24зюз34700 0.0 101060
3 августа, вт
вт300:00+23сз237711 0.0 101127
03:00+22ссз11772 0.0 101111
06:00+22ююз22730 0.0 101116
09:00+29юз23500 0.0 1012822
12:00+32юз443784 0.0 10121396
15:00+31юз5542100 0.0 10121028
18:00+31зюз334425 0.0 10111259
21:00+22с387818 0.9 1014147
4 августа, ср
ср400:00+22ссв227915 0.6 101432
03:00+21ссв3784100 0.6 1015152
06:00+20св36786 0.0 1015119
09:00+26св345519 0.0 1016660
12:00+31ссв333511 0.0 10161904
15:00+32ссз23285 0.0 10142392
18:00+32ссв123040 0.0 10142019
21:00+25св114662 0.0 101513
5 августа, чт
чт500:00+23св3342100 0.0 101537
03:00+23в334921 0.0 101536
06:00+22всв33535 0.0 101534
09:00+29в33375 0.0 1015509
12:00+33юв32276 0.0 10141934
15:00+34ююв43255 0.0 10132438
18:00+33ююв332621 0.0 10121263
21:00+25в2246100 0.0 101219
6 августа, пт
пт600:00+24юв22544 0.0 101119
03:00+23св2256100 0.0 101111
06:00+22всв335660 0.0 101039
09:00+29в46355 0.0 1008514
12:00+34вюв66235 0.0 10071523
15:00+35вюв442896 0.0 10061821
18:00+34в54355 0.0 1005969
21:00+26юв23642 0.0 100555